Location: Unspecified
(46.4167°N, 0.0000°E)
Time: 02:56:31
(UTC+00:00)

Cosmos 1850 Rocket - Visible Passes

Search period start: 04 April 2026 00:00
Search period end: 14 April 2026 00:00
Orbit: 750 x 781 km, 74.0° (Epoch: 29 March)

Date Brightness Start Highest point End Pass type
(mag) Time Alt. Az. Time Alt. Az. Time Alt. Az.
4 Apr 4.9 02:46:46 10° NNW 02:51:50 48° ENE 02:56:49 10° SE visible
4 Apr 5.0 04:29:22 10° NW 04:33:30 24° W 04:37:37 10° SSW visible
4 Apr 6.8 19:10:04 10° W 19:13:43 18° NW 19:17:22 10° N visible
5 Apr 5.7 02:09:06 10° N 02:13:42 30° ENE 02:18:14 10° ESE visible
5 Apr 4.3 03:50:57 10° NW 03:55:49 41° WSW 04:00:36 10° S visible
6 Apr 6.4 01:31:38 10° N 01:35:27 20° NE 01:39:12 10° E visible
6 Apr 3.8 03:12:49 10° NNW 03:18:00 69° WSW 03:21:07 24° S visible
7 Apr 6.8 00:54:36 10° NNE 00:57:04 13° NE 00:59:30 10° ENE visible
7 Apr 4.1 02:34:51 10° NNW 02:40:04 72° ENE 02:41:52 41° SE visible
7 Apr 5.4 04:18:21 10° WNW 04:21:25 16° W 04:21:58 16° WSW visible
8 Apr 5.0 01:57:03 10° N 02:02:02 44° ENE 02:03:21 36° E visible
8 Apr 4.9 03:39:30 10° NW 03:43:28 27° W 03:43:28 27° W visible
9 Apr 5.7 01:19:25 10° N 01:23:53 28° NE 01:25:10 25° E visible
9 Apr 4.4 03:01:09 10° NNW 03:05:18 42° W 03:05:18 42° W visible
10 Apr 6.3 00:42:00 10° N 00:45:36 18° NE 00:47:12 16° ENE visible
10 Apr 4.2 02:23:02 10° NNW 02:27:20 60° NW 02:27:20 60° NW visible
11 Apr 6.7 00:05:08 10° NNE 00:07:11 12° NE 00:09:15 10° ENE visible
11 Apr 4.5 01:45:07 10° NNW 01:49:31 57° NNE 01:49:31 57° NNE visible
11 Apr 5.8 03:28:21 10° NW 03:29:40 14° WNW 03:29:40 14° WNW visible
12 Apr 5.1 01:07:20 10° N 01:11:46 39° NE 01:11:46 39° NE visible
12 Apr 5.5 02:49:38 10° NW 02:51:56 22° WNW 02:51:56 22° WNW visible
13 Apr 5.8 00:29:44 10° N 00:34:03 26° NE 00:34:06 26° NE visible
13 Apr 5.1 02:11:19 10° NNW 02:14:16 32° NW 02:14:16 32° NW visible
13 Apr 6.2 23:52:23 10° N 23:55:45 17° NE 23:56:29 17° ENE visible
